Terminal Aerodrome Forecast
Issued by NWS Twin Cities, MN

Home | Current Version | Previous Version | Graphics & Text | Print | Product List | Glossary On
Versions: 1 2 3 4 5 6 7 8 9 10 11 12
000
FTUS43 KMPX 122300
TAFSTC
TAF
KSTC 122320Z 1300/1324 29004KT P6SM SKC
      TEMPO 1300/1303 BKN060
     FM131400 20008KT P6SM SKC
     FM131700 20011G19KT P6SM SCT200=

USA.gov is the U.S. government's official web portal to all federal, state and local government web resources and services.